Погода в Монтеррее

Мексика     25°40′53″N   100°17′49″W
В апреле 2022 года жителям России запретили посещать сайт meteo.paraplan.net по решению Генеральной прокуратуры. Аудитория сайта уменьшилась в 10 раз. Владельцы сайта не видят смысла в поддержке погодного сервера в таких условиях. Сайт будет закрыт в октябре.
темп.,
°C
ветер,
м/с
пор.,
м/с
влажн.,
%
обл.,
%
осадки,
мм/ч
давл.,
гПа
погр.,
м
25 сентября, вс
вс2501:00+24в11760 1.1 101399
04:00+23в11800 0.0 101285
07:00+23ююв01830 0.0 101355
10:00+26в11690 0.0 1014486
13:00+30в32500 1.3 10131443
16:00+32в33392 0.0 10102239
19:00+25с456797 1.2 1012313
22:00+22зюз228678 4.4 1015204
26 сентября, пн
пн2601:00+23ссз11775 4.5 101449
04:00+22зсз01801 0.9 101434
07:00+22зсз01790 2.2 101422
10:00+25всв22640 0.9 1016305
13:00+28в23501 5.3 10161497
16:00+30вюв454257 0.7 10132153
19:00+28ю345044 0.9 1014225
22:00+24всв486683 0.2 1017323
27 сентября, вт
вт2701:00+23в01692 0.9 101743
04:00+23св01681 0.1 101629
07:00+22зсз11680 0.1 101617
10:00+26ссв12540 0.0 1018417
13:00+30в34431 0.0 10171856
16:00+30вюв453941 0.1 10142235
19:00+28в234550 0.1 1015766
22:00+26всв25506 0.0 1017250
28 сентября, ср
ср2801:00+23вюв24680 0.1 1018274
04:00+22юв237837 0.1 1018261
07:00+22ююз117517 0.4 101986
10:00+25всв21626 0.1 1021556
13:00+28всв33391 0.1 10201780
16:00+30в44250 0.0 10172206
19:00+27вюв34340 0.0 1018668
22:00+24ююз22400 0.0 101953
29 сентября, чт
чт2901:00+22вюв23410 0.0 102074
04:00+20ююв11480 0.0 101930
07:00+19зюз11490 0.0 102014
10:00+24всв11370 0.0 1021368
13:00+28всв22240 0.0 10191383
16:00+29в33230 0.0 10161644
19:00+26вюв34320 0.0 1016597
22:00+23ююз22380 0.0 101667